Location: Elliott Corner
(37.4627°N, 119.7746°W)
Time: 21:03:48
(UTC+00:00)

Cosmos 2151 - Pass Details

Date: 10 September 2024
Orbit: 567 x 585 km, 82.5° (Epoch: 11 October)

Event Time Altitude Azimuth Distance (km) Brightness Sun altitude
Rises 12:44:38 0° 352° (N) 2,774 6.5 -11.1°
Reaches altitude 10° 12:46:49 10° 352° (N) 1,873 5.6 -10.7°
Maximum altitude 12:50:56 84° 266° (W) 577 2.8 -9.9°
Drops below altitude 10° 12:54:57 11° 176° (S) 1,826 5.4 -9.1°
Sets 12:57:14 0° 176° (S) 2,762 6.3 -8.7°
